This demonstration page uses our WeatherBlox Daily Observations layout. Learn more.

Left ArrowRight Arrow

Hourly Observations for August 17, 2020

Temp ( °F °C ) Dew Point ( °F °C ) Humidity (%) Winds ( mph kmh ) Pressure ( in mb ) Visibility ( mi km ) Precip ( " mm )
12:52 am 00:52 Clear 66 18.9 57 13.9 73 73 SSW 3 6 30.11 1020 10 16 0.00 0.00
1:52 am 01:52 Clear 65 18.3 58 14.4 78 78 Calm 30.09 1019 10 16 0.00 0.00
2:52 am 02:52 Clear 66 18.9 57 13.9 73 73 Calm 30.07 1018 10 16 0.00 0.00
3:52 am 03:52 Clear 62 16.7 56 13.3 80 80 Calm 30.09 1019 10 16 0.00 0.00
4:52 am 04:52 Clear 63 17.2 57 13.9 81 81 Calm 30.08 1019 10 16 0.00 0.00
5:52 am 05:52 Clear 62 16.7 56 13.3 80 80 SSE 7 11 30.08 1019 10 16 0.00 0.00
6:52 am 06:52 Mostly Cloudy 63 17.2 57 13.9 81 81 S 3 6 30.09 1019 10 16 0.00 0.00
7:52 am 07:52 Mostly Sunny 67 19.4 58 14.4 73 73 S 6 9 30.09 1019 10 16 0.00 0.00
8:52 am 08:52 Sunny 71 21.7 61 16.1 71 71 S 5 7 30.11 1020 10 16 0.00 0.00
9:52 am 09:52 Sunny 81 27.2 59 15 47 47 SW 9 15 30.11 1020 10 16 0.00 0.00
10:52 am 10:52 Sunny 83 28.3 59 15 44 44 NW 12 19 30.11 1020 10 16 0.00 0.00
11:52 am 11:52 Sunny 85 29.4 61 16.1 45 45 WNW 8 13 30.09 1019 10 16 0.00 0.00
12:52 pm 12:52 Sunny 87 30.6 63 17.2 45 45 W 7 11 30.07 1018 10 16 0.00 0.00
1:52 pm 13:52 Sunny 87 30.6 64 17.8 46 46 W 13 20 30.07 1018 10 16 0.00 0.00
2:52 pm 14:52 Partly Cloudy 90 32.2 63 17.2 41 41 NNW 15 24 30.05 1018 10 16 0.00 0.00
3:52 pm 15:52 Mostly Sunny 90 32.2 63 17.2 41 41 N 16 26 30.03 1017 10 16 0.00 0.00
4:52 pm 16:52 Mostly Sunny 88 31.1 63 17.2 43 43 NNW 15 24 30.03 1017 10 16 0.00 0.00
5:52 pm 17:52 Sunny 86 30 61 16.1 43 43 NW 13 20 30.03 1017 10 16 0.00 0.00
6:52 pm 18:52 Sunny 84 28.9 61 16.1 46 46 NNW 13 20 30.03 1017 10 16 0.00 0.00
7:52 pm 19:52 Sunny 78 25.6 60 15.6 54 54 NNW 7 11 30.03 1017 10 16 0.00 0.00
8:52 pm 20:52 Clear 73 22.8 61 16.1 66 66 NNW 7 11 30.04 1017 10 16 0.00 0.00
9:52 pm 21:52 Clear 74 23.3 61 16.1 64 64 N 9 15 30.04 1017 10 16 0.00 0.00
10:52 pm 22:52 Clear 69 20.6 60 15.6 73 73 NNW 5 7 30.05 1018 10 16 0.00 0.00
11:52 pm 23:52 Clear 67 19.4 60 15.6 79 79 NNW 6 9 30.05 1018 10 16 0.00 0.00

Powered by AerisWeather